TimePDT,TemperatureF,Dew PointF,Humidity,Sea Level PressureIn,VisibilityMPH,Wind Direction,Wind SpeedMPH,Gust SpeedMPH,PrecipitationIn,Events,Conditions,WindDirDegrees,DateUTC
12:52 AM,80.1,60.1,50,29.88,10.0,Calm,Calm,-,N/A,,Clear,0,2013-07-02 07:52:00
1:52 AM,75.0,62.1,64,29.87,10.0,Calm,Calm,-,N/A,,Clear,0,2013-07-02 08:52:00
2:52 AM,71.1,61.0,70,29.88,10.0,Calm,Calm,-,N/A,,Clear,0,2013-07-02 09:52:00
3:52 AM,69.1,61.0,75,29.88,10.0,NNE,3.5,-,N/A,,Clear,30,2013-07-02 10:52:00
4:52 AM,69.1,61.0,75,29.90,10.0,Calm,Calm,-,N/A,,Clear,0,2013-07-02 11:52:00
5:52 AM,68.0,62.1,81,29.91,10.0,Calm,Calm,-,N/A,,Clear,0,2013-07-02 12:52:00
7:52 AM,77.0,64.9,66,29.94,10.0,SE,4.6,-,N/A,,Clear,130,2013-07-02 14:52:00
8:52 AM,84.0,64.0,51,29.94,10.0,Calm,Calm,-,N/A,,Clear,0,2013-07-02 15:52:00
9:52 AM,89.1,61.0,39,29.94,10.0,SSW,3.5,-,N/A,,Clear,200,2013-07-02 16:52:00
10:52 AM,93.9,60.1,32,29.94,10.0,SW,6.9,-,N/A,,Clear,220,2013-07-02 17:52:00
11:52 AM,95.0,57.0,28,29.93,10.0,South,8.1,-,N/A,,Clear,190,2013-07-02 18:52:00
12:52 PM,97.0,59.0,28,29.91,10.0,SW,8.1,-,N/A,,Clear,220,2013-07-02 19:52:00
1:52 PM,100.0,55.9,23,29.91,10.0,Variable,5.8,-,N/A,,Clear,0,2013-07-02 20:52:00
2:52 PM,102.9,55.9,21,29.88,10.0,SSW,9.2,-,N/A,,Clear,200,2013-07-02 21:52:00
3:52 PM,102.9,54.0,20,29.86,10.0,South,9.2,-,N/A,,Clear,190,2013-07-02 22:52:00
4:52 PM,102.9,53.1,19,29.83,10.0,South,11.5,-,N/A,,Clear,190,2013-07-02 23:52:00
5:52 PM,102.0,59.0,24,29.82,10.0,South,11.5,17.3,N/A,,Clear,180,2013-07-03 00:52:00
6:52 PM,99.0,66.0,34,29.80,10.0,SE,10.4,-,N/A,,Clear,140,2013-07-03 01:52:00
7:52 PM,98.1,62.1,30,29.80,10.0,South,9.2,-,N/A,,Clear,170,2013-07-03 02:52:00
8:52 PM,93.0,50.0,23,29.81,10.0,NNW,13.8,23.0,N/A,,Clear,340,2013-07-03 03:52:00
9:00 PM,91.4,50.0,24,29.85,10.0,North,13.8,-,N/A,,Clear,350,2013-07-03 04:00:00
9:52 PM,86.0,48.9,28,29.84,10.0,NW,11.5,-,N/A,,Clear,310,2013-07-03 04:52:00
10:52 PM,82.9,46.0,27,29.85,10.0,NNW,11.5,-,N/A,,Clear,330,2013-07-03 05:52:00
11:52 PM,79.0,46.0,31,29.87,10.0,North,5.8,-,N/A,,Clear,10,2013-07-03 06:52:00